Time,TemperatureF,DewpointF,PressureIn,WindDirection,WindDirectionDegrees,WindSpeedMPH,WindSpeedGustMPH,Humidity,HourlyPrecipIn,Conditions,Clouds,dailyrainin,SoftwareType,DateUTC
2014-02-25 00:01:00,47.0,45.7,30.10,SSW,201,0.0,0.0,95,0.00,,---,0.00,VWS V14.01,2014-02-25 05:01:00,
2014-02-25 00:02:00,47.0,45.7,30.10,SSW,201,0.0,0.0,95,0.00,,---,0.00,VWS V14.01,2014-02-25 05:02:00,
2014-02-25 00:07:00,47.0,45.7,30.10,SSW,201,0.0,0.0,95,0.00,,---,0.00,VWS V14.01,2014-02-25 05:07:00,
2014-02-25 00:12:00,47.1,45.7,30.10,SSW,201,0.0,0.0,95,0.00,,---,0.00,VWS V14.01,2014-02-25 05:12:00,
2014-02-25 00:17:00,47.3,46.2,30.10,SSW,201,0.0,2.0,96,0.00,,---,0.00,VWS V14.01,2014-02-25 05:17:00,
2014-02-25 00:22:00,47.7,46.6,30.10,SSW,201,3.0,3.0,96,0.00,,---,0.00,VWS V14.01,2014-02-25 05:22:00,
2014-02-25 00:27:00,47.6,46.2,30.10,SSW,201,0.0,0.0,95,0.01,,---,0.01,VWS V14.01,2014-02-25 05:27:00,
2014-02-25 00:32:00,47.5,46.1,30.10,SSW,201,1.0,2.0,95,0.01,,---,0.01,VWS V14.01,2014-02-25 05:32:00,
2014-02-25 00:37:00,47.4,46.3,30.10,SSW,201,1.0,2.0,96,0.01,,---,0.01,VWS V14.01,2014-02-25 05:37:00,
2014-02-25 00:42:00,47.4,46.3,30.10,SSW,201,1.0,3.0,96,0.01,,---,0.01,VWS V14.01,2014-02-25 05:42:00,
2014-02-25 00:47:00,47.4,46.3,30.10,SSW,201,1.0,3.0,96,0.01,,---,0.01,VWS V14.01,2014-02-25 05:47:00,
2014-02-25 00:52:00,47.4,46.3,30.11,SSW,201,0.0,3.0,96,0.01,,---,0.01,VWS V14.01,2014-02-25 05:52:00,
2014-02-25 00:57:00,47.5,46.4,30.10,SSW,201,2.0,2.0,96,0.01,,---,0.01,VWS V14.01,2014-02-25 05:57:00,
2014-02-25 01:02:00,47.1,45.7,30.10,ENE,76,3.0,4.0,95,0.01,,---,0.01,VWS V14.01,2014-02-25 06:02:00,
2014-02-25 01:07:00,46.9,45.5,30.10,ENE,77,2.0,4.0,95,0.01,,---,0.01,VWS V14.01,2014-02-25 06:07:00,
2014-02-25 01:13:00,47.2,46.1,30.10,ENE,65,4.0,4.0,96,0.01,,---,0.01,VWS V14.01,2014-02-25 06:13:00,
2014-02-25 01:18:00,48.0,46.9,30.10,ENE,61,3.0,4.0,96,0.01,,---,0.01,VWS V14.01,2014-02-25 06:18:00,
2014-02-25 01:23:00,47.9,46.8,30.10,NE,44,5.0,5.0,96,0.01,,---,0.01,VWS V14.01,2014-02-25 06:23:00,
2014-02-25 01:28:00,47.6,46.5,30.10,ENE,59,6.0,6.0,96,0.00,,---,0.01,VWS V14.01,2014-02-25 06:28:00,
2014-02-25 01:33:00,47.3,46.2,30.10,NE,42,5.0,7.0,96,0.00,,---,0.01,VWS V14.01,2014-02-25 06:33:00,
2014-02-25 01:38:00,46.8,45.7,30.10,NE,48,5.0,8.0,96,0.00,,---,0.01,VWS V14.01,2014-02-25 06:38:00,
2014-02-25 01:43:00,46.8,45.7,30.10,NE,37,6.0,8.0,96,0.00,,---,0.01,VWS V14.01,2014-02-25 06:43:00,
2014-02-25 01:48:00,46.2,44.8,30.10,NNE,32,7.0,8.0,95,0.00,,---,0.01,VWS V14.01,2014-02-25 06:48:00,
2014-02-25 01:53:00,45.5,44.2,30.10,NNE,29,7.0,9.0,95,0.00,,---,0.01,VWS V14.01,2014-02-25 06:53:00,
2014-02-25 01:58:00,45.2,43.9,30.09,NE,34,7.0,7.0,95,0.00,,---,0.01,VWS V14.01,2014-02-25 06:58:00,
2014-02-25 02:03:00,45.1,43.8,30.09,NE,35,5.0,7.0,95,0.00,,---,0.01,VWS V14.01,2014-02-25 07:03:00,
2014-02-25 02:04:00,45.1,43.8,30.09,NE,36,6.0,7.0,95,0.00,,---,0.01,VWS V14.01,2014-02-25 07:04:00,
2014-02-25 02:09:00,45.4,44.0,30.09,NE,46,4.0,7.0,95,0.00,,---,0.01,VWS V14.01,2014-02-25 07:09:00,
2014-02-25 02:14:00,45.7,44.3,30.09,NE,46,5.0,7.0,95,0.00,,---,0.01,VWS V14.01,2014-02-25 07:14:00,
2014-02-25 02:19:00,46.1,44.5,30.09,NE,51,5.0,7.0,94,0.00,,---,0.01,VWS V14.01,2014-02-25 07:19:00,
2014-02-25 02:24:00,46.3,44.4,30.09,NE,51,6.0,7.0,93,0.00,,---,0.01,VWS V14.01,2014-02-25 07:24:00,
2014-02-25 02:29:00,46.7,44.2,30.08,NE,46,6.0,7.0,91,0.00,,---,0.01,VWS V14.01,2014-02-25 07:29:00,
2014-02-25 02:34:00,47.0,44.2,30.08,NE,56,6.0,7.0,90,0.00,,---,0.01,VWS V14.01,2014-02-25 07:34:00,
2014-02-25 02:39:00,47.6,43.6,30.08,NE,51,6.0,9.0,86,0.00,,---,0.01,VWS V14.01,2014-02-25 07:39:00,
2014-02-25 02:44:00,47.8,43.2,30.08,NE,44,7.0,10.0,84,0.00,,---,0.01,VWS V14.01,2014-02-25 07:44:00,
2014-02-25 02:49:00,47.9,42.7,30.07,NE,44,7.0,10.0,82,0.00,,---,0.01,VWS V14.01,2014-02-25 07:49:00,
2014-02-25 02:54:00,47.9,41.7,30.07,NE,52,7.0,10.0,79,0.00,,---,0.01,VWS V14.01,2014-02-25 07:54:00,
2014-02-25 03:00:00,48.1,41.2,30.07,NE,50,5.0,9.0,77,0.00,,---,0.01,VWS V14.01,2014-02-25 08:00:00,
2014-02-25 03:05:00,48.1,41.6,30.07,NE,49,5.0,9.0,78,0.00,,---,0.01,VWS V14.01,2014-02-25 08:05:00,
2014-02-25 03:10:00,48.3,41.1,30.06,NE,54,10.0,10.0,76,0.00,,---,0.01,VWS V14.01,2014-02-25 08:10:00,
2014-02-25 03:15:00,48.5,41.3,30.06,ENE,57,7.0,10.0,76,0.00,,---,0.01,VWS V14.01,2014-02-25 08:15:00,
2014-02-25 03:20:00,48.7,42.2,30.06,ENE,67,8.0,10.0,78,0.00,,---,0.01,VWS V14.01,2014-02-25 08:20:00,
2014-02-25 03:25:00,48.8,41.9,30.06,ENE,67,7.0,10.0,77,0.00,,---,0.01,VWS V14.01,2014-02-25 08:25:00,
2014-02-25 03:30:00,49.0,42.1,30.06,ENE,75,3.0,5.0,77,0.00,,---,0.01,VWS V14.01,2014-02-25 08:30:00,
2014-02-25 03:35:00,49.1,42.2,30.06,East,82,5.0,9.0,77,0.00,,---,0.01,VWS V14.01,2014-02-25 08:35:00,
2014-02-25 03:40:00,49.1,41.5,30.06,ENE,67,6.0,10.0,75,0.00,,---,0.01,VWS V14.01,2014-02-25 08:40:00,
2014-02-25 03:45:00,49.0,41.1,30.05,East,81,8.0,11.0,74,0.00,,---,0.01,VWS V14.01,2014-02-25 08:45:00,
2014-02-25 03:50:00,48.7,40.1,30.05,East,90,7.0,11.0,72,0.00,,---,0.01,VWS V14.01,2014-02-25 08:50:00,
2014-02-25 03:55:00,48.6,39.3,30.05,East,87,6.0,11.0,70,0.00,,---,0.01,VWS V14.01,2014-02-25 08:55:00,
2014-02-25 04:00:00,48.5,39.2,30.05,East,86,5.0,11.0,70,0.00,,---,0.01,VWS V14.01,2014-02-25 09:00:00,
2014-02-25 04:06:00,48.4,39.8,30.05,East,83,7.0,12.0,72,0.00,,---,0.01,VWS V14.01,2014-02-25 09:06:00,
2014-02-25 04:11:00,48.4,40.5,30.05,East,92,9.0,12.0,74,0.00,,---,0.01,VWS V14.01,2014-02-25 09:11:00,
2014-02-25 04:16:00,48.3,40.4,30.05,East,92,10.0,12.0,74,0.00,,---,0.01,VWS V14.01,2014-02-25 09:16:00,
2014-02-25 04:21:00,48.3,38.6,30.05,ESE,115,6.0,15.0,69,0.00,,---,0.01,VWS V14.01,2014-02-25 09:21:00,
2014-02-25 04:26:00,48.4,38.7,30.05,ESE,105,10.0,15.0,69,0.00,,---,0.01,VWS V14.01,2014-02-25 09:26:00,
2014-02-25 04:31:00,48.3,37.9,30.04,East,83,7.0,14.0,67,0.00,,---,0.01,VWS V14.01,2014-02-25 09:31:00,
2014-02-25 04:36:00,48.3,37.9,30.05,East,94,11.0,14.0,67,0.00,,---,0.01,VWS V14.01,2014-02-25 09:36:00,
2014-02-25 04:41:00,48.3,37.9,30.05,ENE,78,7.0,14.0,67,0.00,,---,0.01,VWS V14.01,2014-02-25 09:41:00,
2014-02-25 04:46:00,48.2,37.4,30.05,East,92,12.0,14.0,66,0.00,,---,0.01,VWS V14.01,2014-02-25 09:46:00,
2014-02-25 04:51:00,48.0,37.2,30.05,East,92,11.0,14.0,66,0.00,,---,0.01,VWS V14.01,2014-02-25 09:51:00,
2014-02-25 04:56:00,48.0,37.2,30.05,East,79,6.0,14.0,66,0.00,,---,0.01,VWS V14.01,2014-02-25 09:56:00,
2014-02-25 05:01:00,48.0,37.2,30.04,ESE,113,9.0,12.0,66,0.00,,---,0.01,VWS V14.01,2014-02-25 10:01:00,
2014-02-25 05:06:00,48.0,35.6,30.04,East,80,8.0,15.0,62,0.00,,---,0.01,VWS V14.01,2014-02-25 10:06:00,
2014-02-25 05:11:00,48.1,35.3,30.04,ESE,107,10.0,15.0,61,0.00,,---,0.01,VWS V14.01,2014-02-25 10:11:00,
2014-02-25 05:16:00,48.2,35.4,30.04,East,88,10.0,15.0,61,0.00,,---,0.01,VWS V14.01,2014-02-25 10:16:00,
2014-02-25 05:21:00,48.3,34.7,30.04,ESE,116,10.0,17.0,59,0.00,,---,0.01,VWS V14.01,2014-02-25 10:21:00,
2014-02-25 05:27:00,48.5,35.7,30.04,ESE,104,12.0,17.0,61,0.00,,---,0.01,VWS V14.01,2014-02-25 10:27:00,
2014-02-25 05:32:00,48.5,36.5,30.04,ESE,116,13.0,13.0,63,0.00,,---,0.01,VWS V14.01,2014-02-25 10:32:00,
2014-02-25 05:37:00,48.4,37.2,30.04,East,82,12.0,13.0,65,0.00,,---,0.01,VWS V14.01,2014-02-25 10:37:00,
2014-02-25 05:42:00,48.4,38.0,30.04,ESE,104,8.0,14.0,67,0.00,,---,0.01,VWS V14.01,2014-02-25 10:42:00,
2014-02-25 05:47:00,48.4,38.7,30.04,East,91,10.0,14.0,69,0.00,,---,0.01,VWS V14.01,2014-02-25 10:47:00,
2014-02-25 05:52:00,48.5,39.5,30.04,East,82,5.0,14.0,71,0.00,,---,0.01,VWS V14.01,2014-02-25 10:52:00,
2014-02-25 05:57:00,48.5,39.9,30.05,East,90,7.0,7.0,72,0.00,,---,0.01,VWS V14.01,2014-02-25 10:57:00,
2014-02-25 06:02:00,48.4,39.8,30.05,East,82,4.0,10.0,72,0.00,,---,0.01,VWS V14.01,2014-02-25 11:02:00,
2014-02-25 06:07:00,48.3,39.7,30.05,East,86,5.0,10.0,72,0.00,,---,0.01,VWS V14.01,2014-02-25 11:07:00,
2014-02-25 06:12:00,48.1,39.9,30.05,East,84,3.0,10.0,73,0.00,,---,0.01,VWS V14.01,2014-02-25 11:12:00,
2014-02-25 06:17:00,47.9,39.7,30.05,ENE,78,6.0,10.0,73,0.00,,---,0.01,VWS V14.01,2014-02-25 11:17:00,
2014-02-25 06:22:00,47.5,38.6,30.05,NE,36,6.0,10.0,71,0.00,,---,0.01,VWS V14.01,2014-02-25 11:22:00,
2014-02-25 06:24:00,47.2,38.3,30.06,NNE,33,6.0,10.0,71,0.00,,---,0.01,VWS V14.01,2014-02-25 11:24:00,
2014-02-25 06:29:00,46.2,36.2,30.05,NNE,33,5.0,6.0,68,0.00,,---,0.01,VWS V14.01,2014-02-25 11:29:00,
2014-02-25 06:34:00,45.8,36.6,30.05,NNE,33,5.0,6.0,70,0.00,,---,0.01,VWS V14.01,2014-02-25 11:34:00,
2014-02-25 06:39:00,45.7,36.1,30.06,NNE,33,4.0,6.0,69,0.00,,---,0.01,VWS V14.01,2014-02-25 11:39:00,
2014-02-25 06:44:00,45.6,36.8,30.05,NNE,33,4.0,6.0,71,0.00,,---,0.01,VWS V14.01,2014-02-25 11:44:00,
2014-02-25 06:49:00,45.4,36.9,30.05,NNE,33,2.0,6.0,72,0.00,,---,0.01,VWS V14.01,2014-02-25 11:49:00,
2014-02-25 06:54:00,45.2,36.4,30.05,NNE,33,3.0,6.0,71,0.00,,---,0.01,VWS V14.01,2014-02-25 11:54:00,
2014-02-25 06:59:00,45.3,36.5,30.05,NNE,33,2.0,4.0,71,0.00,,---,0.01,VWS V14.01,2014-02-25 11:59:00,
2014-02-25 07:04:00,45.5,37.4,30.05,NNE,33,2.0,4.0,73,0.00,,---,0.01,VWS V14.01,2014-02-25 12:04:00,
2014-02-25 07:09:00,45.4,37.3,30.05,NNE,33,3.0,4.0,73,0.00,,---,0.01,VWS V14.01,2014-02-25 12:09:00,
2014-02-25 07:14:00,45.5,37.4,30.05,NNE,33,2.0,4.0,73,0.00,,---,0.01,VWS V14.01,2014-02-25 12:14:00,
2014-02-25 07:19:00,45.5,37.0,30.04,NNE,33,3.0,4.0,72,0.00,,---,0.01,VWS V14.01,2014-02-25 12:19:00,
2014-02-25 07:24:00,45.6,37.5,30.04,NNE,33,2.0,4.0,73,0.00,,---,0.01,VWS V14.01,2014-02-25 12:24:00,
2014-02-25 07:29:00,45.9,37.8,30.04,ENE,74,3.0,4.0,73,0.00,,---,0.01,VWS V14.01,2014-02-25 12:29:00,
2014-02-25 07:35:00,46.3,38.5,30.05,ENE,57,6.0,9.0,74,0.00,,---,0.01,VWS V14.01,2014-02-25 12:35:00,
2014-02-25 07:40:00,46.9,39.7,30.05,NE,40,6.0,10.0,76,0.00,,---,0.01,VWS V14.01,2014-02-25 12:40:00,
2014-02-25 07:45:00,46.3,38.5,30.06,NE,36,5.0,10.0,74,0.00,,---,0.01,VWS V14.01,2014-02-25 12:45:00,
2014-02-25 07:50:00,45.9,38.8,30.05,NE,52,3.0,10.0,76,0.00,,---,0.01,VWS V14.01,2014-02-25 12:50:00,
2014-02-25 07:55:00,46.0,38.9,30.05,NE,51,6.0,10.0,76,0.00,,---,0.01,VWS V14.01,2014-02-25 12:55:00,
2014-02-25 08:00:00,46.1,38.6,30.05,ENE,61,6.0,7.0,75,0.00,,---,0.01,VWS V14.01,2014-02-25 13:00:00,
2014-02-25 08:05:00,46.3,38.5,30.06,ENE,58,3.0,7.0,74,0.00,,---,0.01,VWS V14.01,2014-02-25 13:05:00,
2014-02-25 08:10:00,46.3,38.1,30.05,ENE,57,5.0,7.0,73,0.00,,---,0.01,VWS V14.01,2014-02-25 13:10:00,
2014-02-25 08:15:00,46.5,38.7,30.05,ENE,76,6.0,7.0,74,0.00,,---,0.01,VWS V14.01,2014-02-25 13:15:00,
2014-02-25 08:20:00,46.9,39.1,30.05,ENE,76,4.0,7.0,74,0.00,,---,0.01,VWS V14.01,2014-02-25 13:20:00,
2014-02-25 08:25:00,47.2,39.0,30.04,East,98,3.0,7.0,73,0.00,,---,0.01,VWS V14.01,2014-02-25 13:25:00,
2014-02-25 08:30:00,47.8,39.9,30.04,East,89,6.0,11.0,74,0.00,,---,0.01,VWS V14.01,2014-02-25 13:30:00,
2014-02-25 08:35:00,48.2,39.2,30.04,East,94,3.0,11.0,71,0.00,,---,0.01,VWS V14.01,2014-02-25 13:35:00,
2014-02-25 08:40:00,48.5,39.5,30.04,ESE,105,5.0,11.0,71,0.00,,---,0.01,VWS V14.01,2014-02-25 13:40:00,
2014-02-25 08:45:00,48.8,39.8,30.04,ENE,78,4.0,11.0,71,0.00,,---,0.01,VWS V14.01,2014-02-25 13:45:00,
2014-02-25 08:50:00,49.1,40.5,30.04,ENE,75,3.0,11.0,72,0.00,,---,0.01,VWS V14.01,2014-02-25 13:50:00,
2014-02-25 08:56:00,49.4,40.8,30.04,East,101,6.0,11.0,72,0.00,,---,0.01,VWS V14.01,2014-02-25 13:56:00,
2014-02-25 09:01:00,49.6,41.0,30.04,East,84,5.0,10.0,72,0.00,,---,0.01,VWS V14.01,2014-02-25 14:01:00,
2014-02-25 09:06:00,49.7,40.7,30.04,ESE,115,7.0,10.0,71,0.00,,---,0.01,VWS V14.01,2014-02-25 14:06:00,
2014-02-25 09:11:00,49.8,41.2,30.03,ESE,104,6.0,10.0,72,0.00,,---,0.01,VWS V14.01,2014-02-25 14:11:00,
2014-02-25 09:16:00,49.6,41.3,30.03,East,101,3.0,10.0,73,0.00,,---,0.01,VWS V14.01,2014-02-25 14:16:00,
2014-02-25 09:21:00,49.6,41.7,30.03,ESE,113,3.0,10.0,74,0.00,,---,0.01,VWS V14.01,2014-02-25 14:21:00,
2014-02-25 09:26:00,49.8,42.5,30.02,ESE,117,2.0,10.0,76,0.00,,---,0.01,VWS V14.01,2014-02-25 14:26:00,
2014-02-25 09:31:00,50.1,42.8,30.02,ESE,114,5.0,7.0,76,0.00,,---,0.01,VWS V14.01,2014-02-25 14:31:00,
2014-02-25 09:36:00,50.4,42.4,30.02,East,96,4.0,7.0,74,0.00,,---,0.01,VWS V14.01,2014-02-25 14:36:00,
2014-02-25 09:41:00,50.4,42.4,30.02,ESE,111,4.0,7.0,74,0.00,,---,0.01,VWS V14.01,2014-02-25 14:41:00,
2014-02-25 09:46:00,50.7,42.4,30.02,East,101,5.0,7.0,73,0.00,,---,0.01,VWS V14.01,2014-02-25 14:46:00,
2014-02-25 09:51:00,51.0,42.7,30.02,ESE,112,2.0,11.0,73,0.00,,---,0.01,VWS V14.01,2014-02-25 14:51:00,
2014-02-25 09:56:00,50.9,42.2,30.03,East,85,4.0,11.0,72,0.00,,---,0.01,VWS V14.01,2014-02-25 14:56:00,
2014-02-25 10:01:00,51.1,42.4,30.03,ENE,69,2.0,6.0,72,0.00,,---,0.01,VWS V14.01,2014-02-25 15:01:00,
2014-02-25 10:06:00,51.5,42.4,30.03,East,97,3.0,7.0,71,0.00,,---,0.01,VWS V14.01,2014-02-25 15:06:00,
2014-02-25 10:11:00,52.0,42.9,30.03,ESE,111,5.0,7.0,71,0.00,,---,0.01,VWS V14.01,2014-02-25 15:11:00,
2014-02-25 10:17:00,52.4,42.5,30.03,ESE,109,2.0,9.0,69,0.00,,---,0.01,VWS V14.01,2014-02-25 15:17:00,
2014-02-25 10:22:00,52.4,42.5,30.02,ESE,108,5.0,9.0,69,0.00,,---,0.01,VWS V14.01,2014-02-25 15:22:00,
2014-02-25 10:27:00,52.7,42.8,30.02,East,100,2.0,9.0,69,0.00,,---,0.01,VWS V14.01,2014-02-25 15:27:00,
2014-02-25 10:32:00,52.4,42.5,30.02,ESE,112,2.0,6.0,69,0.00,,---,0.01,VWS V14.01,2014-02-25 15:32:00,
2014-02-25 10:37:00,52.1,42.6,30.02,ESE,107,3.0,6.0,70,0.00,,---,0.01,VWS V14.01,2014-02-25 15:37:00,
2014-02-25 10:42:00,52.2,42.7,30.01,ESE,118,4.0,7.0,70,0.00,,---,0.01,VWS V14.01,2014-02-25 15:42:00,
2014-02-25 10:47:00,51.9,43.2,30.01,ESE,116,3.0,9.0,72,0.00,,---,0.01,VWS V14.01,2014-02-25 15:47:00,
2014-02-25 10:52:00,51.6,43.2,30.01,ESE,116,4.0,9.0,73,0.00,,---,0.01,VWS V14.01,2014-02-25 15:52:00,
2014-02-25 10:57:00,51.4,43.8,30.01,ESE,113,2.0,2.0,75,0.00,,---,0.01,VWS V14.01,2014-02-25 15:57:00,
2014-02-25 11:02:00,51.5,44.2,30.01,ESE,118,3.0,5.0,76,0.00,,---,0.01,VWS V14.01,2014-02-25 16:02:00,
2014-02-25 11:07:00,52.0,44.7,30.00,ESE,118,3.0,5.0,76,0.00,,---,0.01,VWS V14.01,2014-02-25 16:07:00,
2014-02-25 11:12:00,52.1,44.4,30.00,ESE,118,2.0,5.0,75,0.00,,---,0.01,VWS V14.01,2014-02-25 16:12:00,
2014-02-25 11:17:00,52.0,44.3,30.00,ESE,118,0.0,5.0,75,0.00,,---,0.01,VWS V14.01,2014-02-25 16:17:00,
2014-02-25 11:22:00,52.0,44.7,30.00,ESE,118,2.0,5.0,76,0.00,,---,0.01,VWS V14.01,2014-02-25 16:22:00,
2014-02-25 11:27:00,52.0,44.7,30.00,ESE,118,2.0,2.0,76,0.00,,---,0.01,VWS V14.01,2014-02-25 16:27:00,
2014-02-25 11:32:00,52.1,44.8,30.00,ESE,118,0.0,2.0,76,0.00,,---,0.01,VWS V14.01,2014-02-25 16:32:00,
2014-02-25 11:38:00,52.3,45.3,29.99,ESE,119,0.0,3.0,77,0.00,,---,0.01,VWS V14.01,2014-02-25 16:38:00,
2014-02-25 11:43:00,52.8,45.5,29.98,SE,134,3.0,5.0,76,0.00,,---,0.01,VWS V14.01,2014-02-25 16:43:00,
2014-02-25 11:48:00,53.0,45.3,29.98,SE,126,4.0,6.0,75,0.00,,---,0.01,VWS V14.01,2014-02-25 16:48:00,
2014-02-25 11:53:00,52.9,45.2,29.97,SE,132,0.0,6.0,75,0.00,,---,0.01,VWS V14.01,2014-02-25 16:53:00,
2014-02-25 11:58:00,52.6,45.3,29.97,ESE,123,3.0,4.0,76,0.00,,---,0.01,VWS V14.01,2014-02-25 16:58:00,
2014-02-25 12:03:00,52.4,45.1,29.97,ESE,111,5.0,5.0,76,0.00,,---,0.01,VWS V14.01,2014-02-25 17:03:00,
2014-02-25 12:08:00,52.6,45.3,29.97,ESE,103,6.0,6.0,76,0.00,,---,0.01,VWS V14.01,2014-02-25 17:08:00,
2014-02-25 12:13:00,52.7,45.7,29.96,ESE,113,6.0,7.0,77,0.00,,---,0.01,VWS V14.01,2014-02-25 17:13:00,
2014-02-25 12:18:00,52.8,45.8,29.96,ESE,118,5.0,7.0,77,0.00,,---,0.01,VWS V14.01,2014-02-25 17:18:00,
2014-02-25 12:23:00,53.0,46.3,29.95,SE,138,2.0,7.0,78,0.00,,---,0.01,VWS V14.01,2014-02-25 17:23:00,
2014-02-25 12:28:00,53.1,46.4,29.95,ESE,114,1.0,5.0,78,0.00,,---,0.01,VWS V14.01,2014-02-25 17:28:00,
2014-02-25 12:33:00,53.0,46.7,29.95,ESE,120,2.0,6.0,79,0.00,,---,0.01,VWS V14.01,2014-02-25 17:33:00,
2014-02-25 12:38:00,53.5,47.2,29.94,SE,136,6.0,6.0,79,0.00,,---,0.01,VWS V14.01,2014-02-25 17:38:00,
2014-02-25 12:43:00,53.6,47.3,29.93,SE,130,6.0,9.0,79,0.00,,---,0.01,VWS V14.01,2014-02-25 17:43:00,
2014-02-25 12:48:00,53.9,47.5,29.93,SE,134,5.0,9.0,79,0.00,,---,0.01,VWS V14.01,2014-02-25 17:48:00,
2014-02-25 12:53:00,54.0,48.0,29.92,SSE,150,6.0,10.0,80,0.00,,---,0.01,VWS V14.01,2014-02-25 17:53:00,
2014-02-25 12:59:00,54.2,48.5,29.92,SE,135,6.0,9.0,81,0.00,,---,0.01,VWS V14.01,2014-02-25 17:59:00,
2014-02-25 13:04:00,54.3,48.6,29.92,SE,130,2.0,9.0,81,0.00,,---,0.01,VWS V14.01,2014-02-25 18:04:00,
2014-02-25 13:09:00,54.0,48.3,29.92,SE,126,1.0,9.0,81,0.00,,---,0.01,VWS V14.01,2014-02-25 18:09:00,
2014-02-25 13:14:00,54.2,48.5,29.91,SE,131,1.0,9.0,81,0.00,,---,0.01,VWS V14.01,2014-02-25 18:14:00,
2014-02-25 13:19:00,54.8,49.1,29.91,South,182,2.0,9.0,81,0.00,,---,0.01,VWS V14.01,2014-02-25 18:19:00,
2014-02-25 13:24:00,55.6,49.9,29.91,South,173,3.0,9.0,81,0.00,,---,0.01,VWS V14.01,2014-02-25 18:24:00,
2014-02-25 13:29:00,56.3,50.2,29.91,SSE,161,4.0,6.0,80,0.00,,---,0.01,VWS V14.01,2014-02-25 18:29:00,
2014-02-25 13:34:00,56.8,50.4,29.91,South,190,2.0,6.0,79,0.00,,---,0.01,VWS V14.01,2014-02-25 18:34:00,
2014-02-25 13:39:00,56.9,50.5,29.90,SSW,200,6.0,8.0,79,0.00,,---,0.01,VWS V14.01,2014-02-25 18:39:00,
2014-02-25 13:42:00,56.9,50.5,29.90,South,173,4.0,8.0,79,0.00,,---,0.01,VWS V14.01,2014-02-25 18:42:00,
2014-02-25 13:47:00,57.6,51.5,29.89,SSW,210,6.0,9.0,80,0.00,,---,0.01,VWS V14.01,2014-02-25 18:47:00,
2014-02-25 13:52:00,58.2,52.1,29.89,SSW,213,9.0,14.0,80,0.00,,---,0.01,VWS V14.01,2014-02-25 18:52:00,
2014-02-25 13:57:00,59.4,52.9,29.89,SSW,205,10.0,12.0,79,0.00,,---,0.01,VWS V14.01,2014-02-25 18:57:00,
2014-02-25 14:02:00,60.0,52.8,29.89,SSW,202,10.0,14.0,77,0.00,,---,0.01,VWS V14.01,2014-02-25 19:02:00,
2014-02-25 14:07:00,60.2,53.0,29.88,SSW,213,11.0,18.0,77,0.00,,---,0.01,VWS V14.01,2014-02-25 19:07:00,
2014-02-25 14:12:00,59.9,52.7,29.88,SW,225,5.0,20.0,77,0.00,,---,0.01,VWS V14.01,2014-02-25 19:12:00,
2014-02-25 14:17:00,59.8,52.9,29.88,SW,222,13.0,20.0,78,0.00,,---,0.01,VWS V14.01,2014-02-25 19:17:00,
2014-02-25 14:23:00,60.1,53.2,29.87,South,189,12.0,20.0,78,0.00,,---,0.01,VWS V14.01,2014-02-25 19:23:00,
2014-02-25 14:28:00,60.5,53.3,29.87,SSW,209,12.0,15.0,77,0.00,,---,0.01,VWS V14.01,2014-02-25 19:28:00,
2014-02-25 14:33:00,60.5,53.3,29.87,SW,221,18.0,20.0,77,0.00,,---,0.01,VWS V14.01,2014-02-25 19:33:00,
2014-02-25 14:38:00,60.7,53.5,29.86,WSW,248,15.0,23.0,77,0.00,,---,0.01,VWS V14.01,2014-02-25 19:38:00,
2014-02-25 14:43:00,60.6,53.4,29.86,SSW,206,11.0,23.0,77,0.00,,---,0.01,VWS V14.01,2014-02-25 19:43:00,
2014-02-25 14:48:00,59.8,53.3,29.86,SSW,211,8.0,23.0,79,0.00,,---,0.01,VWS V14.01,2014-02-25 19:48:00,
2014-02-25 14:53:00,59.3,53.1,29.86,SW,232,11.0,23.0,80,0.00,,---,0.01,VWS V14.01,2014-02-25 19:53:00,
2014-02-25 14:58:00,59.1,53.3,29.86,SW,226,11.0,18.0,81,0.00,,---,0.01,VWS V14.01,2014-02-25 19:58:00,
2014-02-25 15:03:00,59.0,53.8,29.86,SSW,211,15.0,21.0,83,0.00,,---,0.01,VWS V14.01,2014-02-25 20:03:00,
2014-02-25 15:08:00,58.9,53.1,29.86,SW,223,13.0,21.0,81,0.00,,---,0.01,VWS V14.01,2014-02-25 20:08:00,
2014-02-25 15:13:00,58.9,53.1,29.86,SSW,209,9.0,21.0,81,0.00,,---,0.01,VWS V14.01,2014-02-25 20:13:00,
2014-02-25 15:18:00,59.0,53.2,29.86,SW,232,12.0,21.0,81,0.00,,---,0.01,VWS V14.01,2014-02-25 20:18:00,
2014-02-25 15:23:00,59.0,53.2,29.86,WSW,243,12.0,21.0,81,0.00,,---,0.01,VWS V14.01,2014-02-25 20:23:00,
2014-02-25 15:28:00,58.9,53.1,29.86,SSW,198,14.0,17.0,81,0.00,,---,0.01,VWS V14.01,2014-02-25 20:28:00,
2014-02-25 15:33:00,59.1,53.3,29.86,SSW,208,15.0,18.0,81,0.00,,---,0.01,VWS V14.01,2014-02-25 20:33:00,
2014-02-25 15:39:00,59.0,53.2,29.86,SW,236,14.0,19.0,81,0.00,,---,0.01,VWS V14.01,2014-02-25 20:39:00,
2014-02-25 15:44:00,58.8,53.0,29.86,SSW,196,16.0,19.0,81,0.00,,---,0.01,VWS V14.01,2014-02-25 20:44:00,
2014-02-25 15:49:00,58.6,53.1,29.86,SW,236,13.0,20.0,82,0.00,,---,0.01,VWS V14.01,2014-02-25 20:49:00,
2014-02-25 15:54:00,58.5,53.0,29.86,SSW,204,17.0,20.0,82,0.00,,---,0.01,VWS V14.01,2014-02-25 20:54:00,
2014-02-25 15:59:00,58.3,52.8,29.86,SSW,212,10.0,16.0,82,0.00,,---,0.01,VWS V14.01,2014-02-25 20:59:00,
2014-02-25 16:04:00,58.2,53.1,29.86,SSW,213,11.0,18.0,83,0.00,,---,0.01,VWS V14.01,2014-02-25 21:04:00,
2014-02-25 16:09:00,58.4,52.9,29.86,SW,233,13.0,18.0,82,0.00,,---,0.01,VWS V14.01,2014-02-25 21:09:00,
2014-02-25 16:14:00,58.4,52.9,29.86,SSW,202,14.0,18.0,82,0.00,,---,0.01,VWS V14.01,2014-02-25 21:14:00,
2014-02-25 16:19:00,58.2,52.7,29.86,SW,219,11.0,19.0,82,0.00,,---,0.01,VWS V14.01,2014-02-25 21:19:00,
2014-02-25 16:24:00,58.1,52.6,29.86,SW,215,12.0,19.0,82,0.00,,---,0.01,VWS V14.01,2014-02-25 21:24:00,
2014-02-25 16:29:00,58.0,52.5,29.86,SW,234,13.0,14.0,82,0.00,,---,0.01,VWS V14.01,2014-02-25 21:29:00,
2014-02-25 16:34:00,58.4,52.9,29.86,SW,230,13.0,15.0,82,0.00,,---,0.01,VWS V14.01,2014-02-25 21:34:00,
2014-02-25 16:39:00,58.7,52.9,29.86,SW,224,7.0,15.0,81,0.00,,---,0.01,VWS V14.01,2014-02-25 21:39:00,
2014-02-25 16:44:00,58.9,52.8,29.86,SSW,207,13.0,15.0,80,0.00,,---,0.01,VWS V14.01,2014-02-25 21:44:00,
2014-02-25 16:49:00,58.7,52.6,29.86,SSW,208,10.0,15.0,80,0.00,,---,0.01,VWS V14.01,2014-02-25 21:49:00,
2014-02-25 16:54:00,58.6,52.8,29.86,SSW,207,5.0,16.0,81,0.00,,---,0.01,VWS V14.01,2014-02-25 21:54:00,
2014-02-25 17:00:00,58.5,52.7,29.86,SW,219,8.0,16.0,81,0.00,,---,0.01,VWS V14.01,2014-02-25 22:00:00,
2014-02-25 17:05:00,58.3,52.8,29.86,SW,229,10.0,16.0,82,0.00,,---,0.01,VWS V14.01,2014-02-25 22:05:00,
2014-02-25 17:10:00,58.9,53.1,29.86,WSW,246,11.0,16.0,81,0.00,,---,0.01,VWS V14.01,2014-02-25 22:10:00,
2014-02-25 17:15:00,59.6,53.4,29.86,SW,226,11.0,16.0,80,0.00,,---,0.01,VWS V14.01,2014-02-25 22:15:00,
2014-02-25 17:20:00,59.8,53.6,29.86,SW,221,9.0,16.0,80,0.00,,---,0.01,VWS V14.01,2014-02-25 22:20:00,
2014-02-25 17:25:00,60.5,54.0,29.86,WSW,250,6.0,16.0,79,0.00,,---,0.01,VWS V14.01,2014-02-25 22:25:00,
2014-02-25 17:30:00,61.3,54.0,29.87,NW,317,6.0,11.0,77,0.00,,---,0.01,VWS V14.01,2014-02-25 22:30:00,
2014-02-25 17:35:00,61.6,54.7,29.87,WNW,284,4.0,19.0,78,0.00,,---,0.01,VWS V14.01,2014-02-25 22:35:00,
2014-02-25 17:40:00,62.6,54.6,29.87,North,5,5.0,19.0,75,0.00,,---,0.01,VWS V14.01,2014-02-25 22:40:00,
2014-02-25 17:45:00,63.5,53.2,29.88,NNE,25,11.0,19.0,69,0.00,,---,0.01,VWS V14.01,2014-02-25 22:45:00,
2014-02-25 17:50:00,63.2,52.5,29.89,NE,41,10.0,19.0,68,0.00,,---,0.01,VWS V14.01,2014-02-25 22:50:00,
2014-02-25 17:55:00,62.6,51.1,29.89,NE,43,13.0,19.0,66,0.00,,---,0.01,VWS V14.01,2014-02-25 22:55:00,
2014-02-25 18:00:00,62.1,49.4,29.89,NE,34,13.0,16.0,63,0.00,,---,0.01,VWS V14.01,2014-02-25 23:00:00,
2014-02-25 18:05:00,61.5,48.4,29.89,NE,47,11.0,17.0,62,0.00,,---,0.01,VWS V14.01,2014-02-25 23:05:00,
2014-02-25 18:10:00,61.3,48.6,29.89,NE,35,11.0,17.0,63,0.00,,---,0.01,VWS V14.01,2014-02-25 23:10:00,
2014-02-25 18:16:00,60.6,47.5,29.90,North,10,12.0,17.0,62,0.00,,---,0.01,VWS V14.01,2014-02-25 23:16:00,
2014-02-25 18:21:00,59.9,46.9,29.90,NE,43,17.0,22.0,62,0.00,,---,0.01,VWS V14.01,2014-02-25 23:21:00,
2014-02-25 18:26:00,59.2,47.5,29.90,NE,35,13.0,22.0,65,0.00,,---,0.01,VWS V14.01,2014-02-25 23:26:00,
2014-02-25 18:31:00,58.3,45.3,29.91,NE,46,15.0,23.0,62,0.00,,---,0.01,VWS V14.01,2014-02-25 23:31:00,
2014-02-25 18:36:00,57.7,45.6,29.91,NNE,31,16.0,23.0,64,0.00,,---,0.01,VWS V14.01,2014-02-25 23:36:00,
2014-02-25 18:41:00,57.2,45.2,29.91,NE,40,19.0,23.0,64,0.00,,---,0.01,VWS V14.01,2014-02-25 23:41:00,
2014-02-25 18:46:00,56.7,45.5,29.92,NNE,19,14.0,23.0,66,0.00,,---,0.01,VWS V14.01,2014-02-25 23:46:00,
2014-02-25 18:51:00,56.2,45.0,29.91,NE,41,14.0,23.0,66,0.00,,---,0.01,VWS V14.01,2014-02-25 23:51:00,
2014-02-25 18:56:00,55.8,44.6,29.92,NE,35,15.0,23.0,66,0.00,,---,0.01,VWS V14.01,2014-02-25 23:56:00,
2014-02-25 19:01:00,55.5,43.9,29.92,NE,38,16.0,21.0,65,0.00,,---,0.01,VWS V14.01,2014-02-26 00:01:00,
2014-02-25 19:06:00,54.9,43.4,29.93,NE,53,16.0,21.0,65,0.00,,---,0.01,VWS V14.01,2014-02-26 00:06:00,
2014-02-25 19:11:00,54.4,43.7,29.93,NE,44,17.0,21.0,67,0.00,,---,0.01,VWS V14.01,2014-02-26 00:11:00,
2014-02-25 19:16:00,54.1,43.8,29.93,NE,41,14.0,21.0,68,0.00,,---,0.01,VWS V14.01,2014-02-26 00:16:00,
2014-02-25 19:21:00,53.8,43.9,29.93,NE,44,12.0,21.0,69,0.00,,---,0.01,VWS V14.01,2014-02-26 00:21:00,
2014-02-25 19:26:00,53.5,43.6,29.93,NE,45,11.0,21.0,69,0.00,,---,0.01,VWS V14.01,2014-02-26 00:26:00,
2014-02-25 19:31:00,53.2,43.7,29.93,NE,45,13.0,17.0,70,0.00,,---,0.01,VWS V14.01,2014-02-26 00:31:00,
2014-02-25 19:37:00,52.8,42.9,29.94,ENE,65,20.0,20.0,69,0.00,,---,0.01,VWS V14.01,2014-02-26 00:37:00,
2014-02-25 19:42:00,52.4,42.2,29.94,NE,56,15.0,22.0,68,0.00,,---,0.01,VWS V14.01,2014-02-26 00:42:00,
2014-02-25 19:47:00,52.0,42.2,29.94,NE,43,13.0,22.0,69,0.00,,---,0.01,VWS V14.01,2014-02-26 00:47:00,
2014-02-25 19:52:00,51.7,41.9,29.94,NE,43,11.0,22.0,69,0.00,,---,0.01,VWS V14.01,2014-02-26 00:52:00,
2014-02-25 19:57:00,51.4,41.6,29.94,NE,47,14.0,22.0,69,0.00,,---,0.01,VWS V14.01,2014-02-26 00:57:00,
2014-02-25 20:02:00,51.2,41.8,29.94,NE,49,12.0,16.0,70,0.00,,---,0.01,VWS V14.01,2014-02-26 01:02:00,
2014-02-25 20:07:00,51.0,41.2,29.94,ENE,68,13.0,16.0,69,0.00,,---,0.01,VWS V14.01,2014-02-26 01:07:00,
2014-02-25 20:12:00,50.8,41.0,29.94,ENE,58,10.0,16.0,69,0.00,,---,0.01,VWS V14.01,2014-02-26 01:12:00,
2014-02-25 20:17:00,50.6,41.6,29.94,ENE,58,12.0,16.0,71,0.00,,---,0.01,VWS V14.01,2014-02-26 01:17:00,
2014-02-25 20:22:00,50.5,41.5,29.94,NE,56,10.0,16.0,71,0.00,,---,0.01,VWS V14.01,2014-02-26 01:22:00,
2014-02-25 20:27:00,50.3,40.9,29.95,NE,39,7.0,10.0,70,0.00,,---,0.01,VWS V14.01,2014-02-26 01:27:00,
2014-02-25 20:32:00,50.1,40.0,29.94,NE,54,5.0,12.0,68,0.00,,---,0.01,VWS V14.01,2014-02-26 01:32:00,
2014-02-25 20:37:00,49.9,40.2,29.95,NE,53,11.0,12.0,69,0.00,,---,0.01,VWS V14.01,2014-02-26 01:37:00,
2014-02-25 20:42:00,49.9,40.5,29.95,ENE,66,9.0,12.0,70,0.00,,---,0.01,VWS V14.01,2014-02-26 01:42:00,
2014-02-25 20:47:00,49.7,41.0,29.95,ENE,71,7.0,12.0,72,0.00,,---,0.01,VWS V14.01,2014-02-26 01:47:00,
2014-02-25 20:52:00,49.6,41.0,29.95,NE,45,9.0,13.0,72,0.00,,---,0.01,VWS V14.01,2014-02-26 01:52:00,
2014-02-25 20:58:00,49.5,40.5,29.95,NE,40,9.0,12.0,71,0.00,,---,0.01,VWS V14.01,2014-02-26 01:58:00,
2014-02-25 21:03:00,49.3,40.3,29.95,NE,45,10.0,12.0,71,0.00,,---,0.01,VWS V14.01,2014-02-26 02:03:00,
2014-02-25 21:08:00,49.1,40.5,29.95,NE,45,12.0,13.0,72,0.00,,---,0.01,VWS V14.01,2014-02-26 02:08:00,
2014-02-25 21:13:00,48.9,39.9,29.96,NE,45,7.0,13.0,71,0.00,,---,0.01,VWS V14.01,2014-02-26 02:13:00,
2014-02-25 21:18:00,48.7,40.5,29.96,NE,42,8.0,13.0,73,0.00,,---,0.01,VWS V14.01,2014-02-26 02:18:00,
2014-02-25 21:23:00,48.5,39.5,29.96,NE,48,6.0,13.0,71,0.00,,---,0.01,VWS V14.01,2014-02-26 02:23:00,
2014-02-25 21:28:00,48.3,39.7,29.96,NE,40,6.0,10.0,72,0.00,,---,0.01,VWS V14.01,2014-02-26 02:28:00,
2014-02-25 21:33:00,48.2,39.2,29.96,ENE,59,10.0,12.0,71,0.00,,---,0.01,VWS V14.01,2014-02-26 02:33:00,
2014-02-25 21:37:00,48.2,41.0,29.96,ENE,60,12.0,12.0,76,0.00,,---,0.01,VWS V14.01,2014-02-26 02:37:00,
2014-02-25 21:42:00,47.9,39.7,29.96,NE,38,10.0,12.0,73,0.00,,---,0.01,VWS V14.01,2014-02-26 02:42:00,
2014-02-25 21:47:00,47.9,39.3,29.96,NE,50,10.0,12.0,72,0.00,,---,0.01,VWS V14.01,2014-02-26 02:47:00,
2014-02-25 21:52:00,47.8,39.6,29.97,NE,47,8.0,12.0,73,0.00,,---,0.01,VWS V14.01,2014-02-26 02:52:00,
2014-02-25 21:57:00,47.7,39.5,29.97,NE,55,6.0,9.0,73,0.00,,---,0.01,VWS V14.01,2014-02-26 02:57:00,
2014-02-25 22:03:00,47.5,39.6,29.97,NE,46,7.0,12.0,74,0.00,,---,0.01,VWS V14.01,2014-02-26 03:03:00,
2014-02-25 22:08:00,47.4,39.5,29.97,NE,52,6.0,12.0,74,0.00,,---,0.01,VWS V14.01,2014-02-26 03:08:00,
2014-02-25 22:13:00,47.4,39.2,29.97,NE,54,7.0,12.0,73,0.00,,---,0.01,VWS V14.01,2014-02-26 03:13:00,
2014-02-25 22:18:00,47.3,39.5,29.97,NE,45,9.0,12.0,74,0.00,,---,0.01,VWS V14.01,2014-02-26 03:18:00,
2014-02-25 22:23:00,47.0,38.5,29.97,NE,46,6.0,12.0,72,0.00,,---,0.01,VWS V14.01,2014-02-26 03:23:00,
2014-02-25 22:28:00,46.9,39.1,29.97,NE,44,5.0,7.0,74,0.00,,---,0.01,VWS V14.01,2014-02-26 03:28:00,
2014-02-25 22:33:00,46.7,39.2,29.98,NE,46,7.0,7.0,75,0.00,,---,0.01,VWS V14.01,2014-02-26 03:33:00,
2014-02-25 22:38:00,46.5,39.0,29.98,NE,46,7.0,9.0,75,0.00,,---,0.01,VWS V14.01,2014-02-26 03:38:00,
2014-02-25 22:43:00,46.3,38.8,29.98,NE,40,7.0,10.0,75,0.00,,---,0.01,VWS V14.01,2014-02-26 03:43:00,
2014-02-25 22:48:00,46.1,37.9,29.98,NE,52,6.0,10.0,73,0.00,,---,0.01,VWS V14.01,2014-02-26 03:48:00,
2014-02-25 22:53:00,46.0,38.2,29.98,ENE,67,4.0,10.0,74,0.00,,---,0.01,VWS V14.01,2014-02-26 03:53:00,
2014-02-25 22:58:00,46.0,38.2,29.98,ENE,74,5.0,7.0,74,0.00,,---,0.01,VWS V14.01,2014-02-26 03:58:00,
2014-02-25 23:03:00,46.1,38.6,29.98,ENE,62,6.0,8.0,75,0.00,,---,0.01,VWS V14.01,2014-02-26 04:03:00,
2014-02-25 23:08:00,46.1,37.9,29.98,East,89,4.0,9.0,73,0.00,,---,0.01,VWS V14.01,2014-02-26 04:08:00,
2014-02-25 23:13:00,46.0,36.4,29.98,East,80,9.0,14.0,69,0.00,,---,0.01,VWS V14.01,2014-02-26 04:13:00,
2014-02-25 23:18:00,45.9,35.2,29.98,East,82,11.0,15.0,66,0.00,,---,0.01,VWS V14.01,2014-02-26 04:18:00,
2014-02-25 23:24:00,45.9,32.8,29.97,East,92,14.0,17.0,60,0.00,,---,0.01,VWS V14.01,2014-02-26 04:24:00,
2014-02-25 23:29:00,46.0,32.1,29.97,East,84,11.0,17.0,58,0.00,,---,0.01,VWS V14.01,2014-02-26 04:29:00,
2014-02-25 23:34:00,45.9,30.7,29.97,ENE,66,12.0,17.0,55,0.00,,---,0.01,VWS V14.01,2014-02-26 04:34:00,
2014-02-25 23:39:00,45.8,31.9,29.97,ENE,62,11.0,17.0,58,0.00,,---,0.01,VWS V14.01,2014-02-26 04:39:00,
2014-02-25 23:44:00,45.6,31.3,29.97,ENE,74,10.0,18.0,57,0.00,,---,0.01,VWS V14.01,2014-02-26 04:44:00,
2014-02-25 23:49:00,45.5,32.0,29.96,ENE,59,10.0,18.0,59,0.00,,---,0.01,VWS V14.01,2014-02-26 04:49:00,
2014-02-25 23:54:00,45.3,32.2,29.97,East,87,15.0,18.0,60,0.00,,---,0.01,VWS V14.01,2014-02-26 04:54:00,
2014-02-25 23:59:00,45.2,32.6,29.96,ENE,71,7.0,11.0,61,0.00,,---,0.00,VWS V14.01,2014-02-26 04:59:00,